Time,TemperatureF,DewpointF,PressureIn,WindDirection,WindDirectionDegrees,WindSpeedMPH,WindSpeedGustMPH,Humidity,HourlyPrecipIn,Conditions,Clouds,dailyrainin,SoftwareType,DateUTC
2013-05-07 00:02:00,45.0,34.0,-100.00,WSW,254,19.0,24.0,64,-99.99,,,-99.99,,2013-05-07 06:02:00,
2013-05-07 00:12:00,45.0,35.0,-100.00,WSW,255,20.0,26.0,66,-99.99,,,-99.99,,2013-05-07 06:12:00,
2013-05-07 00:21:00,45.0,35.0,-100.00,West,260,17.0,23.0,68,-99.99,,,-99.99,,2013-05-07 06:21:00,
2013-05-07 00:32:00,44.0,35.0,-100.00,WSW,241,10.0,22.0,71,-99.99,,,-99.99,,2013-05-07 06:32:00,
2013-05-07 00:41:00,44.0,36.0,-100.00,WSW,244,3.0,8.0,72,-99.99,,,-99.99,,2013-05-07 06:41:00,
2013-05-07 00:52:00,44.0,36.0,-100.00,WSW,246,10.0,14.0,72,-99.99,,,-99.99,,2013-05-07 06:52:00,
2013-05-07 01:01:00,44.0,35.0,-100.00,WSW,242,8.0,11.0,71,-99.99,,,-99.99,,2013-05-07 07:01:00,
2013-05-07 01:11:00,44.0,35.0,-100.00,WSW,248,7.0,13.0,70,-99.99,,,-99.99,,2013-05-07 07:11:00,
2013-05-07 01:22:00,43.0,35.0,-100.00,SW,227,8.0,10.0,72,-99.99,,,-99.99,,2013-05-07 07:22:00,
2013-05-07 01:31:00,43.0,35.0,-100.00,WSW,244,7.0,11.0,72,-99.99,,,-99.99,,2013-05-07 07:31:00,
2013-05-07 01:42:00,42.0,35.0,-100.00,SW,231,8.0,10.0,74,-99.99,,,-99.99,,2013-05-07 07:42:00,
2013-05-07 01:52:00,42.0,34.0,-100.00,WSW,243,9.0,16.0,72,-99.99,,,-99.99,,2013-05-07 07:52:00,
2013-05-07 02:02:00,44.0,34.0,-100.00,WSW,241,10.0,17.0,67,-99.99,,,-99.99,,2013-05-07 08:02:00,
2013-05-07 02:11:00,44.0,33.0,-100.00,WSW,248,13.0,17.0,64,-99.99,,,-99.99,,2013-05-07 08:11:00,
2013-05-07 02:21:00,43.0,34.0,-100.00,WSW,246,15.0,22.0,70,-99.99,,,-99.99,,2013-05-07 08:21:00,
2013-05-07 02:31:00,43.0,35.0,-100.00,WSW,243,13.0,21.0,72,-99.99,,,-99.99,,2013-05-07 08:31:00,
2013-05-07 02:41:00,43.0,34.0,-100.00,SW,231,13.0,20.0,70,-99.99,,,-99.99,,2013-05-07 08:41:00,
2013-05-07 02:52:00,43.0,34.0,-100.00,SW,235,12.0,17.0,70,-99.99,,,-99.99,,2013-05-07 08:52:00,
2013-05-07 03:01:00,43.0,34.0,-100.00,WSW,238,14.0,20.0,69,-99.99,,,-99.99,,2013-05-07 09:01:00,
2013-05-07 03:11:00,43.0,34.0,-100.00,WSW,242,10.0,14.0,70,-99.99,,,-99.99,,2013-05-07 09:11:00,
2013-05-07 03:22:00,42.0,34.0,-100.00,SW,222,10.0,14.0,71,-99.99,,,-99.99,,2013-05-07 09:22:00,
2013-05-07 03:33:00,42.0,34.0,-100.00,SW,232,6.0,13.0,72,-99.99,,,-99.99,,2013-05-07 09:33:00,
2013-05-07 03:42:00,41.0,34.0,-100.00,SW,231,7.0,10.0,75,-99.99,,,-99.99,,2013-05-07 09:42:00,
2013-05-07 03:52:00,41.0,34.0,-100.00,WSW,239,8.0,10.0,76,-99.99,,,-99.99,,2013-05-07 09:52:00,
2013-05-07 04:02:00,42.0,34.0,-100.00,SW,231,9.0,12.0,74,-99.99,,,-99.99,,2013-05-07 10:02:00,
2013-05-07 04:12:00,42.0,34.0,-100.00,WSW,237,10.0,13.0,72,-99.99,,,-99.99,,2013-05-07 10:12:00,
2013-05-07 04:22:00,43.0,34.0,-100.00,SW,235,10.0,14.0,71,-99.99,,,-99.99,,2013-05-07 10:22:00,
2013-05-07 04:32:00,42.0,34.0,-100.00,WSW,239,6.0,16.0,72,-99.99,,,-99.99,,2013-05-07 10:32:00,
2013-05-07 04:42:00,42.0,34.0,-100.00,SW,231,8.0,11.0,72,-99.99,,,-99.99,,2013-05-07 10:42:00,
2013-05-07 04:52:00,43.0,34.0,-100.00,WSW,244,9.0,15.0,71,-99.99,,,-99.99,,2013-05-07 10:52:00,
2013-05-07 05:02:00,42.0,34.0,-100.00,WSW,241,8.0,12.0,71,-99.99,,,-99.99,,2013-05-07 11:02:00,
2013-05-07 05:11:00,42.0,34.0,-100.00,SW,227,10.0,14.0,71,-99.99,,,-99.99,,2013-05-07 11:11:00,
2013-05-07 05:21:00,42.0,33.0,-100.00,WSW,247,11.0,14.0,70,-99.99,,,-99.99,,2013-05-07 11:21:00,
2013-05-07 05:32:00,42.0,33.0,-100.00,SW,235,10.0,16.0,70,-99.99,,,-99.99,,2013-05-07 11:32:00,
2013-05-07 05:42:00,42.0,33.0,-100.00,SW,221,7.0,12.0,70,-99.99,,,-99.99,,2013-05-07 11:42:00,
2013-05-07 05:51:00,42.0,33.0,-100.00,SW,234,7.0,12.0,70,-99.99,,,-99.99,,2013-05-07 11:51:00,
2013-05-07 06:01:00,43.0,33.0,-100.00,SW,216,8.0,12.0,68,-99.99,,,-99.99,,2013-05-07 12:01:00,
2013-05-07 06:11:00,44.0,32.0,-100.00,SW,215,9.0,12.0,64,-99.99,,,-99.99,,2013-05-07 12:11:00,
2013-05-07 06:21:00,43.0,32.0,-100.00,SW,226,7.0,8.0,66,-99.99,,,-99.99,,2013-05-07 12:21:00,
2013-05-07 06:32:00,43.0,32.0,-100.00,WSW,242,7.0,10.0,65,-99.99,,,-99.99,,2013-05-07 12:32:00,
2013-05-07 06:41:00,43.0,32.0,-100.00,SW,226,6.0,9.0,64,-99.99,,,-99.99,,2013-05-07 12:41:00,
2013-05-07 06:52:00,42.0,32.0,-100.00,SW,235,7.0,9.0,66,-99.99,,,-99.99,,2013-05-07 12:52:00,
2013-05-07 07:01:00,42.0,32.0,-100.00,WSW,245,6.0,9.0,68,-99.99,,,-99.99,,2013-05-07 13:01:00,
2013-05-07 07:11:00,41.0,33.0,-100.00,WSW,242,7.0,8.0,70,-99.99,,,-99.99,,2013-05-07 13:11:00,
2013-05-07 07:21:00,42.0,33.0,-100.00,WSW,253,8.0,9.0,70,-99.99,,,-99.99,,2013-05-07 13:21:00,
2013-05-07 07:32:00,42.0,33.0,-100.00,WSW,239,6.0,8.0,69,-99.99,,,-99.99,,2013-05-07 13:32:00,
2013-05-07 07:42:00,43.0,33.0,-100.00,SW,236,6.0,10.0,68,-99.99,,,-99.99,,2013-05-07 13:42:00,
2013-05-07 07:52:00,43.0,33.0,-100.00,WSW,242,7.0,9.0,67,-99.99,,,-99.99,,2013-05-07 13:52:00,
2013-05-07 08:01:00,44.0,33.0,-100.00,SW,236,9.0,12.0,66,-99.99,,,-99.99,,2013-05-07 14:01:00,
2013-05-07 08:11:00,44.0,33.0,-100.00,WSW,246,8.0,11.0,64,-99.99,,,-99.99,,2013-05-07 14:11:00,
2013-05-07 08:21:00,45.0,33.0,-100.00,WSW,243,7.0,13.0,63,-99.99,,,-99.99,,2013-05-07 14:21:00,
2013-05-07 08:31:00,45.0,32.0,-100.00,WSW,244,11.0,14.0,61,-99.99,,,-99.99,,2013-05-07 14:31:00,
2013-05-07 08:42:00,46.0,33.0,-100.00,WSW,245,9.0,12.0,60,-99.99,,,-99.99,,2013-05-07 14:42:00,
2013-05-07 08:52:00,46.0,33.0,-100.00,WSW,253,11.0,13.0,60,-99.99,,,-99.99,,2013-05-07 14:52:00,
2013-05-07 09:01:00,46.0,32.0,-100.00,WSW,256,8.0,14.0,58,-99.99,,,-99.99,,2013-05-07 15:01:00,
2013-05-07 09:12:00,46.0,33.0,-100.00,WSW,250,8.0,11.0,61,-99.99,,,-99.99,,2013-05-07 15:12:00,
2013-05-07 09:20:00,48.0,34.0,-100.00,NW,311,1.0,3.0,57,-99.99,,,-99.99,,2013-05-07 15:20:00,
2013-05-07 09:21:00,47.0,33.0,-100.00,West,266,9.0,10.0,58,-99.99,,,-99.99,,2013-05-07 15:21:00,
2013-05-07 09:33:00,46.0,33.0,-100.00,West,267,6.0,11.0,60,-99.99,,,-99.99,,2013-05-07 15:33:00,
2013-05-07 09:42:00,47.0,34.0,-100.00,WNW,288,5.0,7.0,59,-99.99,,,-99.99,,2013-05-07 15:42:00,
2013-05-07 09:53:00,48.0,34.0,-100.00,NW,311,1.0,3.0,57,-99.99,,,-99.99,,2013-05-07 15:53:00,
2013-05-07 10:03:00,48.0,34.0,-100.00,NW,311,1.0,3.0,57,-99.99,,,-99.99,,2013-05-07 16:03:00,
2013-05-07 10:12:00,48.0,34.0,-100.00,NW,311,1.0,3.0,57,-99.99,,,-99.99,,2013-05-07 16:12:00,
2013-05-07 12:01:00,49.0,34.0,-100.00,West,271,14.0,20.0,56,-99.99,,,-99.99,,2013-05-07 18:01:00,
2013-05-07 12:11:00,49.0,34.0,-100.00,West,271,14.0,20.0,56,-99.99,,,-99.99,,2013-05-07 18:11:00,
2013-05-07 12:21:00,49.0,34.0,-100.00,West,271,14.0,20.0,56,-99.99,,,-99.99,,2013-05-07 18:21:00,
2013-05-07 12:31:00,51.0,31.0,-100.00,West,259,15.0,21.0,45,-99.99,,,-99.99,,2013-05-07 18:31:00,
2013-05-07 12:41:00,52.0,30.0,-100.00,WSW,254,17.0,24.0,43,-99.99,,,-99.99,,2013-05-07 18:41:00,
2013-05-07 12:51:00,52.0,29.0,-100.00,WSW,251,9.0,18.0,40,-99.99,,,-99.99,,2013-05-07 18:51:00,
2013-05-07 13:02:00,53.0,30.0,-100.00,WNW,296,15.0,22.0,41,-99.99,,,-99.99,,2013-05-07 19:02:00,
2013-05-07 13:11:00,53.0,28.0,-100.00,West,270,14.0,18.0,37,-99.99,,,-99.99,,2013-05-07 19:11:00,
2013-05-07 13:21:00,53.0,29.0,-100.00,WSW,254,6.0,12.0,38,-99.99,,,-99.99,,2013-05-07 19:21:00,
2013-05-07 13:31:00,52.0,28.0,-100.00,WSW,246,14.0,18.0,39,-99.99,,,-99.99,,2013-05-07 19:31:00,
2013-05-07 13:41:00,52.0,28.0,-100.00,WSW,246,14.0,18.0,39,-99.99,,,-99.99,,2013-05-07 19:41:00,
2013-05-07 13:52:00,53.0,29.0,-100.00,WSW,257,14.0,23.0,39,-99.99,,,-99.99,,2013-05-07 19:52:00,
2013-05-07 14:01:00,54.0,30.0,-100.00,West,262,17.0,24.0,38,-99.99,,,-99.99,,2013-05-07 20:01:00,
2013-05-07 14:11:00,54.0,29.0,-100.00,WSW,246,15.0,20.0,38,-99.99,,,-99.99,,2013-05-07 20:11:00,
2013-05-07 14:21:00,54.0,30.0,-100.00,West,265,13.0,18.0,40,-99.99,,,-99.99,,2013-05-07 20:21:00,
2013-05-07 14:32:00,55.0,31.0,-100.00,West,276,12.0,17.0,40,-99.99,,,-99.99,,2013-05-07 20:32:00,
2013-05-07 14:41:00,56.0,29.0,-100.00,West,263,13.0,19.0,36,-99.99,,,-99.99,,2013-05-07 20:41:00,
2013-05-07 14:51:00,55.0,30.0,-100.00,WSW,253,6.0,16.0,38,-99.99,,,-99.99,,2013-05-07 20:51:00,
2013-05-07 15:01:00,56.0,29.0,-100.00,West,267,14.0,19.0,35,-99.99,,,-99.99,,2013-05-07 21:01:00,
2013-05-07 15:11:00,54.0,29.0,-100.00,West,266,13.0,19.0,38,-99.99,,,-99.99,,2013-05-07 21:11:00,
2013-05-07 15:21:00,53.0,29.0,-100.00,West,262,17.0,22.0,38,-99.99,,,-99.99,,2013-05-07 21:21:00,
2013-05-07 15:32:00,54.0,28.0,-100.00,WSW,257,15.0,19.0,36,-99.99,,,-99.99,,2013-05-07 21:32:00,
2013-05-07 15:42:00,54.0,28.0,-100.00,West,261,10.0,18.0,35,-99.99,,,-99.99,,2013-05-07 21:42:00,
2013-05-07 15:52:00,55.0,26.0,-100.00,West,275,10.0,11.0,32,-99.99,,,-99.99,,2013-05-07 21:52:00,
2013-05-07 16:02:00,56.0,25.0,-100.00,West,270,12.0,16.0,30,-99.99,,,-99.99,,2013-05-07 22:02:00,
2013-05-07 16:13:00,56.0,27.0,-100.00,West,267,18.0,22.0,32,-99.99,,,-99.99,,2013-05-07 22:13:00,
2013-05-07 16:22:00,56.0,27.0,-100.00,WSW,247,9.0,15.0,32,-99.99,,,-99.99,,2013-05-07 22:22:00,
2013-05-07 16:32:00,56.0,27.0,-100.00,South,186,8.0,15.0,32,-99.99,,,-99.99,,2013-05-07 22:32:00,
2013-05-07 16:42:00,55.0,26.0,-100.00,WSW,253,9.0,21.0,32,-99.99,,,-99.99,,2013-05-07 22:42:00,
2013-05-07 16:52:00,55.0,26.0,-100.00,West,263,9.0,16.0,32,-99.99,,,-99.99,,2013-05-07 22:52:00,
2013-05-07 17:01:00,51.0,30.0,-100.00,West,262,18.0,34.0,44,-99.99,,,-99.99,,2013-05-07 23:01:00,
2013-05-07 17:11:00,48.0,34.0,-100.00,WSW,241,22.0,43.0,59,-99.99,,,-99.99,,2013-05-07 23:11:00,
2013-05-07 17:21:00,48.0,31.0,-100.00,SW,231,20.0,28.0,51,-99.99,,,-99.99,,2013-05-07 23:21:00,
2013-05-07 17:32:00,48.0,30.0,-100.00,WSW,242,12.0,24.0,50,-99.99,,,-99.99,,2013-05-07 23:32:00,
2013-05-07 17:41:00,48.0,29.0,-100.00,WSW,243,13.0,17.0,46,-99.99,,,-99.99,,2013-05-07 23:41:00,
2013-05-07 17:52:00,49.0,28.0,-100.00,West,264,13.0,16.0,44,-99.99,,,-99.99,,2013-05-07 23:52:00,
2013-05-07 18:01:00,49.0,28.0,-100.00,WSW,245,6.0,9.0,43,-99.99,,,-99.99,,2013-05-08 00:01:00,
2013-05-07 18:11:00,48.0,30.0,-100.00,ESE,109,8.0,13.0,48,-99.99,,,-99.99,,2013-05-08 00:11:00,
2013-05-07 18:21:00,45.0,36.0,-100.00,ESE,102,13.0,16.0,68,-99.99,,,-99.99,,2013-05-08 00:21:00,
2013-05-07 18:32:00,45.0,36.0,-100.00,ESE,108,8.0,15.0,69,-99.99,,,-99.99,,2013-05-08 00:32:00,
2013-05-07 18:41:00,46.0,35.0,-100.00,East,98,11.0,14.0,66,-99.99,,,-99.99,,2013-05-08 00:41:00,
2013-05-07 18:51:00,45.0,37.0,-100.00,East,83,12.0,15.0,73,-99.99,,,-99.99,,2013-05-08 00:51:00,
2013-05-07 19:02:00,44.0,38.0,-100.00,ESE,106,10.0,13.0,78,-99.99,,,-99.99,,2013-05-08 01:02:00,
2013-05-07 19:11:00,44.0,37.0,-100.00,ESE,111,10.0,13.0,78,-99.99,,,-99.99,,2013-05-08 01:11:00,
2013-05-07 19:21:00,43.0,37.0,-100.00,ESE,109,10.0,11.0,78,-99.99,,,-99.99,,2013-05-08 01:21:00,
2013-05-07 19:31:00,43.0,36.0,-100.00,ESE,123,9.0,10.0,76,-99.99,,,-99.99,,2013-05-08 01:31:00,
2013-05-07 19:42:00,43.0,36.0,-100.00,ESE,117,9.0,11.0,76,-99.99,,,-99.99,,2013-05-08 01:42:00,
2013-05-07 19:52:00,43.0,36.0,-100.00,ESE,120,10.0,11.0,74,-99.99,,,-99.99,,2013-05-08 01:52:00,
2013-05-07 20:01:00,43.0,36.0,-100.00,East,91,8.0,9.0,74,-99.99,,,-99.99,,2013-05-08 02:01:00,
2013-05-07 20:12:00,43.0,37.0,-100.00,East,90,9.0,12.0,79,-99.99,,,-99.99,,2013-05-08 02:12:00,
2013-05-07 20:21:00,42.0,37.0,-100.00,East,101,9.0,11.0,80,-99.99,,,-99.99,,2013-05-08 02:21:00,
2013-05-07 20:31:00,41.0,37.0,-100.00,ESE,122,10.0,13.0,88,-99.99,,,-99.99,,2013-05-08 02:31:00,
2013-05-07 20:42:00,41.0,37.0,-100.00,ESE,122,10.0,13.0,88,-99.99,,,-99.99,,2013-05-08 02:42:00,
2013-05-07 20:52:00,40.0,38.0,-100.00,SE,125,9.0,15.0,90,-99.99,,,-99.99,,2013-05-08 02:52:00,
2013-05-07 21:01:00,40.0,38.0,-100.00,SE,140,11.0,12.0,90,-99.99,,,-99.99,,2013-05-08 03:01:00,
2013-05-07 21:11:00,40.0,37.0,-100.00,SSE,154,7.0,11.0,88,-99.99,,,-99.99,,2013-05-08 03:11:00,
2013-05-07 21:21:00,41.0,36.0,-100.00,South,169,8.0,10.0,83,-99.99,,,-99.99,,2013-05-08 03:21:00,
2013-05-07 21:32:00,42.0,35.0,-100.00,SW,217,6.0,9.0,78,-99.99,,,-99.99,,2013-05-08 03:32:00,
2013-05-07 21:43:00,42.0,35.0,-100.00,WSW,246,6.0,7.0,76,-99.99,,,-99.99,,2013-05-08 03:43:00,
2013-05-07 21:52:00,41.0,35.0,-100.00,West,262,10.0,12.0,78,-99.99,,,-99.99,,2013-05-08 03:52:00,
2013-05-07 22:02:00,41.0,35.0,-100.00,West,271,6.0,7.0,79,-99.99,,,-99.99,,2013-05-08 04:02:00,
2013-05-07 22:12:00,39.0,35.0,-100.00,NNW,328,6.0,6.0,83,-99.99,,,-99.99,,2013-05-08 04:12:00,
2013-05-07 22:22:00,39.0,34.0,-100.00,WNW,289,4.0,4.0,84,-99.99,,,-99.99,,2013-05-08 04:22:00,
2013-05-07 22:32:00,38.0,34.0,-100.00,NW,316,4.0,4.0,86,-99.99,,,-99.99,,2013-05-08 04:32:00,
2013-05-07 22:42:00,39.0,34.0,-100.00,SSW,211,4.0,5.0,84,-99.99,,,-99.99,,2013-05-08 04:42:00,
2013-05-07 22:52:00,38.0,33.0,-100.00,NNW,348,2.0,2.0,82,-99.99,,,-99.99,,2013-05-08 04:52:00,
2013-05-07 23:02:00,38.0,34.0,-100.00,SE,142,2.0,3.0,86,-99.99,,,-99.99,,2013-05-08 05:02:00,
2013-05-07 23:12:00,39.0,34.0,-100.00,SE,136,2.0,6.0,82,-99.99,,,-99.99,,2013-05-08 05:12:00,
2013-05-07 23:22:00,40.0,34.0,-100.00,SSE,153,4.0,6.0,80,-99.99,,,-99.99,,2013-05-08 05:22:00,
2013-05-07 23:32:00,37.0,34.0,-100.00,ESE,105,6.0,6.0,86,-99.99,,,-99.99,,2013-05-08 05:32:00,
2013-05-07 23:42:00,37.0,34.0,-100.00,ESE,105,6.0,6.0,86,-99.99,,,-99.99,,2013-05-08 05:42:00,
2013-05-07 23:52:00,37.0,34.0,-100.00,East,101,0.0,1.0,86,-99.99,,,-99.99,,2013-05-08 05:52:00,